Location: Babice
(50.3480°N, 22.9363°E)
Time: 12:50:25
(UTC+00:00)

Cosmos 1818 - Pass Details

Date: 14 July 2020
Orbit: 777 x 796 km, 65.0° (Epoch: 07 August)

Event Time Altitude Azimuth Distance (km) Brightness Sun altitude
Rises 01:16:11 0° 319° (NW) 3,309 6.9 -9.6°
Reaches altitude 10° 01:18:37 10° 319° (NW) 2,377 6.2 -9.4°
Maximum altitude 01:24:05 84° 233° (SW) 807 3.6 -8.8°
Drops below altitude 10° 01:29:32 10° 145° (SE) 2,360 5.9 -8.3°
Sets 01:31:57 0° 145° (SE) 3,284 6.6 -8.0°
